sat.trackr.live / text

‹ back to catalog

STARLINK-32612

NORAD 61972 · 2024-210P

PAYLOAD ACTIVE UNKNOWN

§ Identity

Operator
Country
US
Launch date
2024-11-14
Launch site
AFETR
Launch vehicle
Mass (kg)
RCS (m²)

Purposes: comms

External: N2YO · Heavens-Above · Gunter

§ Orbital elements

Epoch: 2026-09-21T23:01:30.792288Z

Period
94.27 min
Inclination
43.0017°
Eccentricity
0.0001185
Mean motion
15.27578406 rev/d
Perigee alt
482.2 km
Apogee alt
483.9 km
Semi-major
6,861.2 km
B*
5.1075e-4
RAAN
151.6701°
Arg perigee
272.2477°
Mean anomaly
87.8239°
Rev number
10,489

§ Raw data

STARLINK-326121 61972U 24210P   26264.95938417  .00013818  00000+0  51075-3 0  99912 61972  43.0017 151.6701 0001185 272.2477  87.8239 15.27578406104893

JSON: /api/v1/satellites/61972 · /tle

For live sub-satellite position, see the globe view (requires WebGL).

§ Visibility from observer

Set your observer location to see the next 7 days of passes ≥ 10°. The values pass through the URL so the page stays shareable.

No JS? Fill the form by hand. The geolocation button needs JavaScript.